DMSP 5D-2 F13 DEB, 40523

Orbit data source: Space-Track

DMSP 5D-2 F13 DEB, 40523 is space debris in SSO originally from a launch on Fri, 24 Mar 1995 UTC launched from the Air Force Western Test Range (AFWTR). Debris objects in space refer to the collection of defunct objects orbiting the Earth. Examples of debris include non-operational satellites, rocket bodies, and fragments generated from explosions, collisions, or faulty payload assembly.

Loading next visibility...
Identifier
40523, 1995-015DK
Orbit
SSO
Country
Flag of USUS
Related business
Manufacturer
Unknown
Mission
Spacecraft
Bus & Motor
Unknown
Mass
Unknown
Launch date (UTC)
1995-03-24 (31 years ago)
Launch vehicle
Unknown
Launch site
Air Force Western Test Range (AFWTR)
Object type
Payload
Rocket body
Debris
Shape & HBR
Unknown shape, 0.1 m
Radar Cross Section
Small (<0.1 m²)

Expand to show TLE details & history
Last TLE update: 2 days ago

TLE from 2 days ago
0 DMSP 5D-2 F13 DEB
1 40523U 95015DK  26119.11909259  .00006521  00000-0  16643-2 0  9995
2 40523  98.6044 176.5648 0009965   7.9424 352.1925 14.50828848578688
Epoch: 2026-04-29T02:51Z
TLE epoch observation values (Epoch: 2026-04-29T02:51:29.599Z)
Latitude
-0.00012°
Longitude
-83.39314°
Altitude
718.891 km
Speed
7.5 km/s
True Right ascension
11h 46m 15s
True Declination
0° 00' 00"
Sunlit
Object was in full shadow at epoch
Visualization orbit readout
Latitude
Unknown
Longitude
Unknown
Altitude
Unknown
Speed
Unknown
Apparent Right ascension
Unknown
Apparent Declination
Unknown
Sunlit
N/A
Visualization observer readout
Local Sidereal Time
09:48:16
Azimuth
Unknown
Elevation
Unknown
Doppler factor
Unknown
Orbital elements
Apogee altitude
727.128 km
Perigee altitude
712.982 km
Semi-major axis
7,098.192 km
Eccentricity
0.001
Inclination
98.6044°
RAAN
176.5648°
Arg. of periapsis
7.9424°
True anomaly
352.17697°
Mean anomaly
352.1925°
Eccentric anomaly
352.18474°
Mean motion
3.62929 °/min
Orbital period
99.19 mins
BSTAR
0.0016643

Documentation

Showing up to 5 results
|